第8屆(2017)北區豐盛人生健樂長跑比賽
3 Dec, 2017 Sunday Temperature : 17°C;  Humidity :76%
2公里跑
組別名稱 賽程總名次 組別名次 號碼布編號 中文姓名 英文姓名 大會時間
RaceCatNameChi RkOverall RkCat Bib NameChi NameEng OfficialTime
2公里歡樂跑 1 1 9143 方衍橋 Fong Hin Kiu 00:10:02
2公里歡樂跑 2 2 9817 劉勰政 Lau Hip Ching 00:10:05
2公里歡樂跑 3 3 9818 劉天樂 Lau Tin Lok Erica 00:10:05
2公里歡樂跑 4 4 9335 翁則洋  WENG Chak Yeung  00:10:12
2公里歡樂跑 5 5 9323 陳趙宇 CHEN Chu Yu  00:10:13
2公里歡樂跑 6 6 9529 葉錦培 YIP Kam Pui Lewis  00:10:17
2公里歡樂跑 7 7 9340 何嘉俊 Ho Ka Chun 00:10:47
2公里歡樂跑 8 8 9280 鄭舒文 ZHENG SHUWEN IVAN  00:10:49
2公里歡樂跑 9 9 9289 吉文璟  JI Wenjing  00:11:00
2公里歡樂跑 10 10 9300 葉錦培  YIP Kam Pui Lewis  00:11:11
2公里歡樂跑 11 11 9528 葉惠䨬 Yip Wai Lam Lily 00:11:49
2公里歡樂跑 12 12 9552 陳嘉嶸 Chan Ka Wing 00:12:00
2公里歡樂跑 13 13 9819 劉懿康 Lau Yee Hong Elvis 00:12:01
2公里歡樂跑 14 14 9393 彭尚哲 Pang Sheung Chit 00:12:02
2公里歡樂跑 15 15 9474 張文俊 Cheung Man Chuen 00:12:14
2公里歡樂跑 16 16 9475 張小柔 Trinity Cheung 00:12:14
2公里歡樂跑 17 17 9433 梁晉靈 Leung Chun Ling 00:12:14
2公里歡樂跑 18 18 9306 吉文聰  JI Wencong  00:12:17
2公里歡樂跑 19 19 9350 陳淑慧  Chan Shuk Wai 00:12:17
2公里歡樂跑 20 20 9810 Liam Pui Tat 00:12:20
2公里歡樂跑 21 21 9571 許峻傑 Felix Hui 00:12:20
2公里歡樂跑 22 22 9395 彭子桓 Pang Tsz Wun 00:12:22
2公里歡樂跑 23 23 9031 葉多美 Yip To Mei 00:12:25
2公里歡樂跑 24 24 9566 曾恩傑 Tsang Yan Kit 00:12:29
2公里歡樂跑 25 25 9560 成恩信 Sing Yan Shun 00:12:29
2公里歡樂跑 26 26 9568 王俊傑 Wong Chun Kit 00:12:31
2公里歡樂跑 27 27 9344 向震  Xiang Zhen 00:12:35
2公里歡樂跑 28 28 9119 黎嘉翹 Lai Ka Kiu 00:12:37
2公里歡樂跑 29 29 9153 葉晉林 Ip Chun Lam 00:12:43
2公里歡樂跑 30 30 9567 王俊偉 Wong Chun Wai 00:12:47
2公里歡樂跑 31 31 9450 阮美琪 Yuen Mei Ki 00:12:51
2公里歡樂跑 32 32 9451 楊星兒 Yang Sing Yi 00:12:51
2公里歡樂跑 33 33 9127 蘇恩澤 So Yan Chak 00:12:55
2公里歡樂跑 34 34 9267  葉倩妤 YE SINUE 00:12:57
2公里歡樂跑 35 35 9809 Kaila Pui Ching 00:12:59
2公里歡樂跑 36 36 9808 莊定賢 David Jordan 00:13:00
2公里歡樂跑 37 37 9396 張志鏘 Cheung Chi Cheong 00:13:13
2公里歡樂跑 38 38 9102 曾卓生 Tsang Cheuk Sang 00:13:18
2公里歡樂跑 39 39 9100 曾家豪 Tsang Ka Ho 00:13:19
2公里歡樂跑 40 40 9084 盧天禮 Lo Tin Lai 00:13:25
2公里歡樂跑 41 41 9297 王鶴庭  WANG Heting  00:13:32
2公里歡樂跑 42 42 9316  馬家驍 MA Jiaxiao Jesse  00:13:34
2公里歡樂跑 43 43 9430 簡嘉怡 Kan Ka Yi 00:13:35
2公里歡樂跑 44 44 9816 黃敏禎 Wong Man Ching Iris 00:13:36
2公里歡樂跑 45 45 9801 羅家洋 Law Ka Yeung 00:13:41
2公里歡樂跑 46 46 9547 馮慶華 Fung Hing Wa 00:13:47
2公里歡樂跑 47 47 9417 鄺家豪 Kwong Ka Ho 00:13:49
2公里歡樂跑 48 48 9169 連慧琳 Lin Wai Lam 00:13:53
2公里歡樂跑 49 49 9293 黎柏熹  LAI Pak Hei  00:13:53
2公里歡樂跑 50 50 9030 褚穎萍 Chu Wing Ping 00:13:54
2公里歡樂跑 51 51 9322  莊智博 ZHUANG Chi Pok 00:13:55
2公里歡樂跑 52 52 9442 陳曉晴 Chan Hiu Ching 00:13:57
2公里歡樂跑 53 53 9224 黎正行 Lai Ching Hang 00:13:57
2公里歡樂跑 54 54 9115 談活希 Tam Wut Hei 00:13:57
2公里歡樂跑 55 55 9245 梁珮詩  LEUNG PUI SZE  00:13:59
2公里歡樂跑 56 56 9204 葉宏廣 Ip Wang Kwong 00:14:00
2公里歡樂跑 57 57 9397 張庭浩 Cheung Ting Ho 00:14:02
2公里歡樂跑 58 58 9237 馮樂韜  FENG AUSTON LOK TO  00:14:03
2公里歡樂跑 59 59 9538 何弘毅 Ho wen Ngai 00:14:04
2公里歡樂跑 60 60 9536 何世昌 Ho Sai Cheong 00:14:05
2公里歡樂跑 61 61 9429 簡綽怡 Kan Cheuk Yi 00:14:06
2公里歡樂跑 62 62 9426 周滿林 Chau Moon Lam 00:14:07
2公里歡樂跑 63 63 9265 王博灝 WANG RYAN 00:14:11
2公里歡樂跑 64 64 9444 周詠欣 Chow Wing Yan 00:14:12
2公里歡樂跑 65 65 9427 黃啓賢 Wong KaiYin 00:14:12
2公里歡樂跑 66 66 9428 黃志新 Wong Chi Sun 00:14:13
2公里歡樂跑 67 67 9241 黃睿洋  HUANG RUIYANG  00:14:15
2公里歡樂跑 68 68 9612 蕭士博 XIAO STEPHEN 00:14:16
2公里歡樂跑 69 69 9049 陳永棠 Chan Wing Tong Philip 00:14:17
2公里歡樂跑 70 70 9051 陳瑋聰 Chan Wai Chung 00:14:17
2公里歡樂跑 71 71 9208 關健林 Kwan Kin Lam 00:14:17
2公里歡樂跑 72 72 9207 關紫晴 Kwan Tsz Ching 00:14:17
2公里歡樂跑 73 73 9005 黎籽希 Lai Tsz Hei 00:14:24
2公里歡樂跑 74 74 9061 陳學謙 Chan Hok Him 00:14:26
2公里歡樂跑 75 75 9261 高梓欽  GAO TSZ YAM  00:14:27
2公里歡樂跑 76 76 9613 黃惠婷 HUANG HUITING 00:14:28
2公里歡樂跑 77 77 9611 蕭亦言 XIAO VICKY 00:14:29
2公里歡樂跑 78 78 9116 黃婉瑩 Wong Yuen Ying 00:14:30
2公里歡樂跑 79 79 9257 蔡紫寧  CAI CHARLl E  00:14:33
2公里歡樂跑 80 80 9269 鄭霖霖 ZHENG LAM LAM 00:14:33
2公里歡樂跑 81 81 9076 梁沛如 Leung Bibi 00:14:34
2公里歡樂跑 82 82 9762 黃麗 HUANG LI 00:14:46
2公里歡樂跑 83 83 9763 邱趙晉廷 QIU CHIU CHUN TING 00:14:46
2公里歡樂跑 84 84 9435 歐陽迎 Ou Yang Ying 00:14:48
2公里歡樂跑 85 85 9239 陳梓瀚  CHEN TSZ HON  00:14:48
2公里歡樂跑 86 86 9321  張嘉豪 ZHANG Jiahao  00:14:51
2公里歡樂跑 87 87 9437 鄧美晴 Deng Mei Qing 00:14:51
2公里歡樂跑 88 88 9467 馮朗弘 Fung Long Wang 00:14:51
2公里歡樂跑 89 89 9392 錢衍儒 Chin Hin Yu 00:14:54
2公里歡樂跑 90 90 9390 石麗霞 Shek Lai Ha 00:14:57
2公里歡樂跑 91 91 9424 招嘉麗 Chiu Ka Lai 00:14:57
2公里歡樂跑 92 92 9423 謝志遠 Tse Chi Yuen 00:14:57
2公里歡樂跑 93 93 9403 周澤喬 Chow Chak Kiu 00:14:59
2公里歡樂跑 94 94 9050 李潤屏 Lee Yun Ping 00:15:02
2公里歡樂跑 95 95 9402 郭泓鋒 Kwok Wang Fung 00:15:02
2公里歡樂跑 96 96 9317 潘敏穎 PAN Emmy 00:15:03
2公里歡樂跑 97 97 9466 馮心瑜 Fung Sum Yu 00:15:08
2公里歡樂跑 98 98 9294 文德明  MAN Tak Ming Leo 00:15:09
2公里歡樂跑 99 99 9302 戎嘉穎  YUNG Ka Wing 00:15:10
2公里歡樂跑 100 100 9303 曾創鴻  ZENG Chong Hung  00:15:11
2公里歡樂跑 101 101 9443 凌靄琪 Ling Oi Ki 00:15:12
2公里歡樂跑 102 102 9308 吳芷睛  WU Tsz Ching  00:15:12
2公里歡樂跑 103 103 9455 馬文惠 Ma Wen Hui 00:15:13
2公里歡樂跑 104 104 9310 陳諾賢  CHAN Nok Yin  00:15:14
2公里歡樂跑 105 105 9373 翁麗琴 00:15:17
2公里歡樂跑 106 106 9058 葉慧欣 Yip Wai Yan 00:15:18
2公里歡樂跑 107 107 9320  張凱崴 ZHANG Hoi Wai  00:15:19
2公里歡樂跑 108 108 9026 詹皓琳 Chim Ho Lam 00:15:20
2公里歡樂跑 109 109 9278 殷浩政 YAN HO CHING  00:15:21
2公里歡樂跑 110 110 9553 陳紀悠 Chan Kei Yau 00:15:22
2公里歡樂跑 111 111 9695 周子 CHOW TSZ HANG 00:15:22
2公里歡樂跑 112 112 9788 黃悅心 Wong Yuet Sum 00:15:25
2公里歡樂跑 113 113 9250 潘永安  PAN RICHMOND  00:15:26
2公里歡樂跑 114 114 9394 彭諾行 Pang Nok Hang 00:15:28
2公里歡樂跑 115 115 9234 董守中 Tung Sau Chung 00:15:28
2公里歡樂跑 116 116 9014 李立芬 Lee Lap Fun 00:15:29
2公里歡樂跑 117 117 9223 陳少玲 Chan Siu Ling 00:15:30
2公里歡樂跑 118 118 9029 胡錫恩 Wu Sik Yan Stephen 00:15:33
2公里歡樂跑 119 119 9028 胡芷齊 Wu Tze Chai 00:15:34
2公里歡樂跑 120 120 9773 趙富琚 00:15:34
2公里歡樂跑 121 121 9334 謝智謙  TSE Chi Him  00:15:34
2公里歡樂跑 122 122 9167 鄒啟明 Chow Kai Ming 00:15:34
2公里歡樂跑 123 123 9272 林臻  LlN Chun 00:15:37
2公里歡樂跑 124 124 9266  溫悅詩 WEN YUET SZE 00:15:38
2公里歡樂跑 125 125 9062 鄧安喬 Tang On Kiu 00:15:39
2公里歡樂跑 126 126 9314  廖梓充 LlAO Tsz Chung 00:15:39
2公里歡樂跑 127 127 9644 吳海鋒 WU HAIFEIVG 00:15:40
2公里歡樂跑 128 128 9083 王漢文 Wong Hon Man 00:15:40
2公里歡樂跑 129 129 9667 黃新婷 00:15:44
2公里歡樂跑 130 130 9299 葉樂心  YIP Angel loksun  00:15:44
2公里歡樂跑 131 131 9296 謝智傑  TSE Chi Kit  00:15:47
2公里歡樂跑 132 132 9784 曾天皓 Tsang Tin Ho Andrew 00:15:49
2公里歡樂跑 133 133 9431 陳釗展 Chan Chiu Sen 00:15:51
2公里歡樂跑 134 134 9236 朱玉蘭 Zhu Yu Lan 00:15:52
2公里歡樂跑 135 135 9240 韓錦鵬  HAN KAM PANG  00:15:54
2公里歡樂跑 136 136 9254 朱尉彤  ZHU WAI TUNG  00:15:54
2公里歡樂跑 137 137 9117 王淼金 Wong Miu Yam 00:15:55
2公里歡樂跑 138 138 9011 倪綽霖 Ngai Cheuk Lam 00:15:56
2公里歡樂跑 139 139 9342 覃秀斌  Qin Xiu Bin 00:15:56
2公里歡樂跑 140 140 9003 黎志剛 Lai Chi Kwong 00:15:59
2公里歡樂跑 141 141 9004 黎家妤 Lai Ka Ve 00:16:00
2公里歡樂跑 142 142 9002 彭雪瑩 Pang Suet Ying 00:16:00
2公里歡樂跑 143 143 9330 林釔婷 LIN YITING  00:16:01
2公里歡樂跑 144 144 9189 文顯晴 Man Hin Ching 00:16:02
2公里歡樂跑 145 145 9401 郭泓鍵 Kwok Wang Kin 00:16:02
2公里歡樂跑 146 146 9363 甄惠玲  Yan Wai Ling 00:16:03
2公里歡樂跑 147 147 9678 陳海英 00:16:04
2公里歡樂跑 148 148 9679 蔡宏基 00:16:05
2公里歡樂跑 149 149 9114 文晞韻 Man Hei Wan 00:16:07
2公里歡樂跑 150 150 9438 楊慧珊 Yang Hui Shan 00:16:09
2公里歡樂跑 151 151 9309 葉昊森  YE Ho Sum  00:16:09
2公里歡樂跑 152 152 9436 唐沁瑩 Tong Tsam Ying 00:16:09
2公里歡樂跑 153 153 9805 胡少勳 Woo Siu Fan Gary 00:16:09
2公里歡樂跑 154 154 9168 祁宇沺 KI Yu Tin 00:16:11
2公里歡樂跑 155 155 9806 梁煥芬 Leung Wun Fan 00:16:13
2公里歡樂跑 156 156 9551 陳家羚 Chan Ka Ling 00:16:14
2公里歡樂跑 157 157 9025 麥皓銘 Mak Ho Ming 00:16:15
2公里歡樂跑 158 158 9259 張綺婷  CHEUNG YEE TING  00:16:19
2公里歡樂跑 159 159 9785 歐陽絲露 Ouyang Silu 00:16:21
2公里歡樂跑 160 160 9456 區陽四 Ou Yang Si 00:16:26
2公里歡樂跑 161 161 9432 陳燦強 Chan Charn Keung 00:16:26
2公里歡樂跑 162 162 9458 周錦發 Chow Kam Fat 00:16:29
2公里歡樂跑 163 163 9181 崔載恩 Chui Choi Yan 00:16:29
2公里歡樂跑 164 164 9457 周淑敏 Chow Shuk Man 00:16:29
2公里歡樂跑 165 165 9811 Tang Lap Hay Adrian 00:16:30
2公里歡樂跑 166 166 9012 李恩雅 Lee Sze Nga 00:16:31
2公里歡樂跑 167 167 9244 梁家健  LEUNG KA KIN  00:16:32
2公里歡樂跑 168 168 9270 胡嘉叡 HU KA YUI  00:16:34
2公里歡樂跑 169 169 9230 鄧碧珊 Tang Pik Shan 00:16:34
2公里歡樂跑 170 170 9171 周子建 Chow Tsz Kin 00:16:34
2公里歡樂跑 171 171 9448 凌藹珊 Ling Oi Shan 00:16:34
2公里歡樂跑 172 172 9581 李泳儀 LI Wing Yee 00:16:34
2公里歡樂跑 173 173 9546 倪燕芬 Ngai Yin Fun 00:16:35
2公里歡樂跑 174 174 9172 凌鳳儀 Ling Fung Yee 00:16:35
2公里歡樂跑 175 175 9545 朱嘉盈 Chu Ka Ying 00:16:36
2公里歡樂跑 176 176 9716 陳卓明 00:16:37
2公里歡樂跑 177 177 9655 關鎧嵐 KWAN HOI LAAM 00:16:38
2公里歡樂跑 178 178 9068 林紫蒨 Green Lalita 00:16:38
2公里歡樂跑 179 179 9220 吳卓瑤 Ng Cheuk Yiu 00:16:38
2公里歡樂跑 180 180 9797 楊耀琮 Yeung Yiu Chung 00:16:38
2公里歡樂跑 181 181 9558 成恩樂 Sing Yan Lok 00:16:43
2公里歡樂跑 182 182 9559 朱佩宜 Chu Pui Yee Jenny 00:16:44
2公里歡樂跑 183 183 9681 冼柏宇 XIAN BO YU 00:16:46
2公里歡樂跑 184 184 9707 丘霖峰 00:16:47
2公里歡樂跑 185 185 9574 袁睿鍇 Yuen Yui Kai 00:16:48
2公里歡樂跑 186 186 9286 陳梓毅  CHAN Tsz Ngai  00:16:49
2公里歡樂跑 187 187 9565 何華萍 He Huaping 00:16:50
2公里歡樂跑 188 188 9288 華子燁  HUA Edward  00:16:50
2公里歡樂跑 189 189 9562 潘詠儀 Poon Wing Yi Ruby 00:16:50
2公里歡樂跑 190 190 9329 陳伊欣  ITO Chan Yi Yan  00:16:51
2公里歡樂跑 191 191 9023 麥偉興 Mak Wai Hing 00:16:51
2公里歡樂跑 192 192 9281 陳琪鋒  CHEN Ki Fung 00:16:52
2公里歡樂跑 193 193 9024 麥詠嘉 Mak Wing Ka 00:16:52
2公里歡樂跑 194 194 9517 王文浚 Eric Wong 00:16:52
2公里歡樂跑 195 195 9516 朱櫻 Zhu Ying 00:16:53
2公里歡樂跑 196 196 9057 鄭振鋒 Zheng Chun Fung 00:16:53
2公里歡樂跑 197 197 9348 嚴海城  Yim Hoi Shing 00:16:54
2公里歡樂跑 198 198 9650 黃怡衡 HUANG YI HANG 00:16:54
2公里歡樂跑 199 199 9575 冷學琴 Leung Xueqin 00:16:54
2公里歡樂跑 200 200 9273 麥海誼 MAK HOI YI  00:16:55
2公里歡樂跑 201 201 9767 廖穎禧 LIU WING HEI 00:16:55
2公里歡樂跑 202 202 9121 龔恩詠 Kung Yan Wing 00:16:55
2公里歡樂跑 203 203 9142 葉志強 Yip Chi Keung 00:16:56
2公里歡樂跑 204 204 9128 王偉基 Wong Wai Kei 00:16:56
2公里歡樂跑 205 205 9637 許傑釗 XU KIT CHIU 00:16:57
2公里歡樂跑 206 206 9129 王佩嬋 Wong Pui Sim 00:16:57
2公里歡樂跑 207 207 9048 劉芷茵 Lau Tsz Yan 00:16:58
2公里歡樂跑 208 208 9750 邵家兒 SIU KA YI 00:16:58
2公里歡樂跑 209 209 9140 葉家朗 Yip Ka Long 00:16:58
2公里歡樂跑 210 210 9421 歐陽敏儀 Au Yeung Man Yi Doris 00:16:58
2公里歡樂跑 211 211 9422 梁樂欣 Leung Lok Yan 00:16:59
2公里歡樂跑 212 212 9601 劉官偉 Lau Kun Wai 00:17:00
2公里歡樂跑 213 213 9141 梁小萍 Leung Siu Ping 00:17:02
2公里歡樂跑 213 213 9646 黃灝懿 HUANG HO YI 00:17:02
2公里歡樂跑 215 215 9157 蔡芷旋 Choi Tsz Shuen Sandy 00:17:03
2公里歡樂跑 216 216 9369 Sudiyati 00:17:03
2公里歡樂跑 217 217 9056 萬釨華 Man Tse Wa 00:17:03
2公里歡樂跑 218 218 9683 嚴瑾 YAN KAN 00:17:04
2公里歡樂跑 219 219 9682 毛燕麗 MAO YAN LI 00:17:05
2公里歡樂跑 220 220 9228 梁懿謙 Leung Yi Him 00:17:05
2公里歡樂跑 221 221 9284 許煌煒  XU Huang Wei  00:17:07
2公里歡樂跑 222 222 9476 張政仁 Cheung Quincy 00:17:08
2公里歡樂跑 223 223 9263 黎家業  LI JIA YE  00:17:09
2公里歡樂跑 224 224 9264 李煖梅  LI NUEN MUI  00:17:10
2公里歡樂跑 225 225 9262 黃祖怡  HUANG JOEY  00:17:11
2公里歡樂跑 226 226 9060 林賽玉 Lam Choi Yuk 00:17:14
2公里歡樂跑 227 227 9708 劉淑嬌 LIU SHU JIAO 00:17:15
2公里歡樂跑 228 228 9709 黃近平 00:17:16
2公里歡樂跑 229 229 9638 王茆 00:17:17
2公里歡樂跑 230 230 9778 伍江濤 WU JIANG TAO 00:17:18
2公里歡樂跑 231 231 9728 張國升 ZHUANG GUO SHENG 00:17:23
2公里歡樂跑 232 232 9439 周芷彤 Zhou Tsz Tung 00:17:23
2公里歡樂跑 233 233 9583 鄭永強 Cheng Wing Keung Vincent 00:17:24
2公里歡樂跑 234 234 9295 宋金德  SONG Kam Tak  00:17:26
2公里歡樂跑 235 235 9110 黃正康 Wong Ching Hong 00:17:26
2公里歡樂跑 236 236 9109 李家欣 Li Ka Yan 00:17:28
2公里歡樂跑 237 237 9136 黃嘉暉 Wong Keith 00:17:28
2公里歡樂跑 238 238 9173 蔡芷悠 Choi Tsz Yau 00:17:29
2公里歡樂跑 239 239 9799 陳芷晴 Chan Tsz Ching 00:17:29
2公里歡樂跑 240 240 9379 伍竣軒 Ng Chun Hin 00:17:31
2公里歡樂跑 241 241 9027 徐晶 Tsui Ching 00:17:31
2公里歡樂跑 242 242 9337 余智明 Yu Chi Ming 00:17:32
2公里歡樂跑 243 243 9108 黃啟華 Wong Kai Wah 00:17:35
2公里歡樂跑 244 244 9111 黃凱霖 Wong Hoi Lam 00:17:35
2公里歡樂跑 245 245 9175 許潔美 Hui Kit Mei 00:17:36
2公里歡樂跑 246 246 9178 王靖 Wong Ching Hong 00:17:37
2公里歡樂跑 247 247 9134 曾詠汶 Tsang Wing Man 00:17:37
2公里歡樂跑 248 248 9133 蘇恩同 So Yan Tung 00:17:37
2公里歡樂跑 249 249 9044 梁子建 Leung Tsz Kin 00:17:37
2公里歡樂跑 250 250 9045 梁凱淇 Leung Ho Ki 00:17:39
2公里歡樂跑 251 251 9268 張小藝 ZHANG XIAO YI 00:17:41
2公里歡樂跑 252 252 9101 曾景生 Tsang King Sang 00:17:42
2公里歡樂跑 253 253 9298 熊梓瑩 XIONG Tsz Ying  00:17:43
2公里歡樂跑 254 254 9357 李依穎  Lee Yi Wing 00:17:43
2公里歡樂跑 255 255 9405 梁梓軒 Leung Tsz Hin 00:17:44
2公里歡樂跑 256 256 9527 潘巧琳 Poon Hau Lam 00:17:44
2公里歡樂跑 257 257 9103 王家敏 Wong Ka Man Carmen 00:17:45
2公里歡樂跑 258 258 9082 吳麗歡 Ng Lai Foon 00:17:50
2公里歡樂跑 259 259 9747 楊志明 YEUNG CHI MING STEVEN 00:17:50
2公里歡樂跑 260 260 9748 楊欣蕎 YEUNG YAN KIU 00:17:51
2公里歡樂跑 261 261 9339 朱志健 Chu Chi Kin  00:17:52
2公里歡樂跑 262 262 9164 崔得悅 Chui Tak Yuet 00:17:55
2公里歡樂跑 263 263 9222 吳浩軒 Ng Ho Hin 00:17:55
2公里歡樂跑 264 264 9371 蕭玉明 Siu Yuk Ming 00:17:55
2公里歡樂跑 265 265 9063 彭慧子 Pang Wai Tzu 00:17:55
2公里歡樂跑 266 266 9462 陳獻一 Chan Hin Yat 00:17:57
2公里歡樂跑 267 267 9400 張惠芳 Cheung Wai Fong 00:17:58
2公里歡樂跑 268 268 9372 蕭清風 Siu Ching Fung 00:17:58
2公里歡樂跑 269 269 9176 廖欣蕾 Liu Yan Lui 00:17:58
2公里歡樂跑 270 270 9549 謝智鋒 Tse Chi Fung 00:17:59
2公里歡樂跑 271 271 9370 周學敏 Chow Hok Man Debbie 00:18:01
2公里歡樂跑 272 272 9526 林月香 Lam Yuet Heung 00:18:03
2公里歡樂跑 273 273 9120 廖明慧 Liu Ming Wai 00:18:03
2公里歡樂跑 274 274 9399 張祖政 Chang Cho Ching 00:18:05
2公里歡樂跑 275 275 9398 張芷溢 Cheung Tsz Yat 00:18:05
2公里歡樂跑 276 276 9620 傅朗偉 FU LONG WAI 00:18:06
2公里歡樂跑 277 277 9669 黃震鵬 00:18:08
2公里歡樂跑 278 278 9694 寧儉娥 NING JIANE 00:18:09
2公里歡樂跑 279 279 9304 黃立凱 HUANG Ll KAI 00:18:10
2公里歡樂跑 280 280 9621 汪頭英 WONG TAU YING 00:18:13
2公里歡樂跑 281 281 9378 伍慶延 Ng Hing Yin 00:18:14
2公里歡樂跑 282 282 9463 郭美儀 Kwok Mei Yi 00:18:14
2公里歡樂跑 283 283 9471 李志安 Lee Chi On 00:18:15
2公里歡樂跑 284 284 9380 伍竣晞 Ng Chun Hei 00:18:16
2公里歡樂跑 285 285 9218 陳文麗 Chan Man Lai 00:18:16
2公里歡樂跑 286 286 9219 吳冠偉 Ng Koon Wai 00:18:17
2公里歡樂跑 287 287 9484 張惠然 CHEUNG WAI YIN 00:18:17
2公里歡樂跑 288 288 9736 湯騏嘉 00:18:19
2公里歡樂跑 289 289 9535 謝淑菌 Tse Suk Yan 00:18:20
2公里歡樂跑 290 290 9534 程國基 Chang Kwok Kei 00:18:25
2公里歡樂跑 291 291 9486 張偉智 00:18:25
2公里歡樂跑 292 292 9325  陳梓軒 CHEN Tsz Hin  00:18:26
2公里歡樂跑 293 293 9354 彭嘉俊  Pang Ka Chun 00:18:27
2公里歡樂跑 294 294 9732 謝東宜 XIE DONG YI 00:18:27
2公里歡樂跑 295 295 9346 王思梅  Wang Simei 00:18:27
2公里歡樂跑 296 296 9734 謝鋒耿 XIE FENG GENG 00:18:28
2公里歡樂跑 297 297 9345 周燕如  Chow Yin Yu 00:18:28
2公里歡樂跑 298 298 9445 馮芷晴 Fung Tsz Ching 00:18:28
2公里歡樂跑 299 299 9721 施瑋峯 SH WEI FENG 00:18:28
2公里歡樂跑 300 300 9352 陳俐珊  Chan Lee Shan 00:18:28
2公里歡樂跑 301 301 9449 李穎璇 Lee Wing Shuen 00:18:28
2公里歡樂跑 302 302 9059 張小燕 Cheung Siu Yin 00:18:29
2公里歡樂跑 303 303 9034 羅家瑩 Lo Ka Ying 00:18:29
2公里歡樂跑 304 304 9410 黃詠恩 Wong Wing Yan 00:18:30
2公里歡樂跑 305 305 9104 姚舂蓮 Yiu Chun Lin 00:18:30
2公里歡樂跑 306 306 9105 羅志光 Lo Chi Kwong 00:18:32
2公里歡樂跑 307 307 9106 彭梓彤 Pang Tsz Tung 00:18:33
2公里歡樂跑 308 308 9563 曾碧雲 Tsang Bik Wan 00:18:33
2公里歡樂跑 309 309 9107 彭子健 Pang Chi Kin 00:18:34
2公里歡樂跑 310 310 9085 盧旭升 Lo Yuk Sing 00:18:34
2公里歡樂跑 311 311 9166 焦麗儀 Chiu Lai Yee 00:18:34
2公里歡樂跑 312 312 9036 鄧永堅 Tang Wing Kin 00:18:34
2公里歡樂跑 313 313 9038 鄧禮勤 Tang Lai Kan 00:18:34
2公里歡樂跑 314 314 9473 何美玲 Ho Mei Ling 00:18:35
2公里歡樂跑 315 315 9052 李茵童 Lee Yan Tung 00:18:35
2公里歡樂跑 316 316 9033 鄭建芳 ZHENG JIANFANG 00:18:36
2公里歡樂跑 317 317 9780 張樂瑤 Cheung Lok Yiu 00:18:36
2公里歡樂跑 318 318 9010 李文輝 Lee Man Fai 00:18:36
2公里歡樂跑 319 319 9009 李汶錡 Lee Man Ki 00:18:37
2公里歡樂跑 320 320 9636 曾秋霞 ZHENG XIU XIA 00:18:38
2公里歡樂跑 321 321 9311 陳嘉淇 CHEN Ka Ki 00:18:40
2公里歡樂跑 322 322 9319 余智鴻 YU ZHI HONG  00:18:40
2公里歡樂跑 323 323 9772 黃蓉 00:18:44
2公里歡樂跑 324 324 9771 鄒昊成 00:18:44
2公里歡樂跑 325 325 9537 李艷霞 Li Yin Ha 00:18:45
2公里歡樂跑 326 326 9548 倪燕婷 Ngai Yin Ting 00:18:45
2公里歡樂跑 327 327 9098 黃文煒 Wong Man Wai 00:18:49
2公里歡樂跑 328 328 9013 李淳希 LEE ATSUKI RAFAEL 00:18:50
2公里歡樂跑 329 329 9604 劉烙洮 Lau Lok To 00:18:50
2公里歡樂跑 330 330 9689 盧寶賢 LO PO YIN 00:18:52
2公里歡樂跑 331 331 9253 張智芯  ZHANG ZHI XING  00:18:53
2公里歡樂跑 332 332 9389 錢展彬 Chin Chin Pan 00:18:53
2公里歡樂跑 333 333 9376 張達成 Cheung Tat Shing 00:18:54
2公里歡樂跑 334 334 9375 魯清怡 Lo Ching Yee 00:18:54
2公里歡樂跑 335 335 9251 容梓軒  RONG TSZ HIN  00:18:55
2公里歡樂跑 336 336 9391 錢衍彤 Chin Hin Tung 00:18:55
2公里歡樂跑 337 337 9786 陳秀娟 Chan Sau Kuen 00:18:56
2公里歡樂跑 338 338 9374 張逸翹 Cheung Yat Kiu 00:18:56
2公里歡樂跑 339 339 9787 鄭天詠 Cheng Tin Wing 00:18:56
2公里歡樂跑 340 340 9163 余逸豐 Yu Yat Fung 00:18:58
2公里歡樂跑 341 341 9155 廖顗頤 Liu Hoi Ye 00:18:59
2公里歡樂跑 342 342 9409 黃勝輝 Wong Shing Fai Chris 00:18:59
2公里歡樂跑 343 343 9384 郭曉棠 Kwok Hiu Tong 00:18:59
2公里歡樂跑 344 344 9385 郭曉慧 Kwok Hiu Wai 00:19:00
2公里歡樂跑 345 345 9411 黃詠詩 Wong Wing Sze 00:19:00
2公里歡樂跑 346 346 9727 張子軒 ZHUANG ZI XUAN 00:19:01
2公里歡樂跑 347 347 9796 楊鎮瑋 Yeung Chun Wai 00:19:02
2公里歡樂跑 348 348 9776 伍錦昊 WU KAM HO 00:19:02
2公里歡樂跑 349 349 9412 柯嘉儀 O Ka Yi 00:19:03
2公里歡樂跑 350 350 9094 黎相承 Lai Sheung Shing 00:19:03
2公里歡樂跑 351 351 9698 楊巽森 YANG YU YU 00:19:04
2公里歡樂跑 352 352 9053 陳浩堃 Chan Ho Kwan 00:19:04
2公里歡樂跑 353 353 9249 馬世堃 MA Shi Kun  00:19:05
2公里歡樂跑 354 354 9645 吳浩燃 WU HO YIN 00:19:06
2公里歡樂跑 355 355 9247 李沁心  LI Tsam Sum  00:19:06
2公里歡樂跑 356 356 9668 黃智健 00:19:09
2公里歡樂跑 357 357 9745 彭康雪 PANG HONG SUET 00:19:12
2公里歡樂跑 358 358 9347 何玉珍  Ho Yuk Chun 00:19:12
2公里歡樂跑 359 359 9521 李宏基 Li Wang Kei 00:19:14
2公里歡樂跑 360 360 9520 李安 LI On 00:19:15
2公里歡樂跑 361 361 9227 何江川 Ho Kong Chun 00:19:15
2公里歡樂跑 362 362 9209 黎展清 Li Zhanqing 00:19:15
2公里歡樂跑 363 363 9001 羅飛華 Law Fei wa 00:19:16
2公里歡樂跑 364 364 9508 謝文光 Tse Man Kwong 00:19:18
2公里歡樂跑 365 365 9074 黃英傑 Wong Ying Kit 00:19:19
2公里歡樂跑 366 366 9073 黃堂 Wong Tong 00:19:20
2公里歡樂跑 367 367 9097 黃文烽 Wong Man Fung Matthew 00:19:20
2公里歡樂跑 368 368 9564 曾秋儀 Tsang Chau Yee 00:19:21
2公里歡樂跑 369 369 9777 馮冠誼 FENG GUAN YI 00:19:25
2公里歡樂跑 370 370 9007 黃國強 Wong Kwok Keung 00:19:25
2公里歡樂跑 371 371 9530 張鎧恩 Cheung Hoi Yan 00:19:25
2公里歡樂跑 372 372 9531 張思翹 Cheung Yan Kiu 00:19:26
2公里歡樂跑 373 373 9123 鍾淑貞 Chung Shuk Ching 00:19:26
2公里歡樂跑 374 374 9122 李洪華 Lee Hung Wah 00:19:26
2公里歡樂跑 375 375 9673 瞿詩淇 QU REBECCA 00:19:27
2公里歡樂跑 376 376 9532 李小薇 Lee Siaw Wei 00:19:27
2公里歡樂跑 377 377 9252 陶煒然  TAO WAI YIN  00:19:28
2公里歡樂跑 378 378 9351 馮淑賢  Fung Suk Yin 00:19:29
2公里歡樂跑 379 379 9343 譚志鵬  Tam Chi Pang 00:19:29
2公里歡樂跑 380 380 9008 鄧瑞蓮 Tang Sui Lin 00:19:33
2公里歡樂跑 381 381 9798 楊駿鋒 Yeung Chun Fung 00:19:35
2公里歡樂跑 382 382 9792 羅漢興 Law Hon Hing 00:19:36
2公里歡樂跑 383 383 9661 許小青 HUI SIU CHING 00:19:37
2公里歡樂跑 384 384 9522 林紫賢 Lam Tsz Yin 00:19:38
2公里歡樂跑 385 385 9677 李子誠 00:19:38
2公里歡樂跑 386 386 9055 陳錦輝 Chan Kam Fai 00:19:39
2公里歡樂跑 387 387 9035 方鈺怡 Fong Yuk Yi  00:19:40
2公里歡樂跑 388 388 9662 蕭世民 SIU SAI MAN 00:19:40
2公里歡樂跑 389 389 9037 鄧韻瑤 Tang Wan Yiu 00:19:40
2公里歡樂跑 390 390 9112 黎燕萍 Lai Yin Ping Dathy 00:19:42
2公里歡樂跑 391 391 9113 黎燕芬 Lai Yin Fan Mat 00:19:43
2公里歡樂跑 392 392 9095 黎一脈 Lai Yat Mak 00:19:44
2公里歡樂跑 393 393 9096 殷蕙紅 Yan Wai Hung 00:19:46
2公里歡樂跑 394 394 9274 王字宏 WANG Yu Hong  00:19:47
2公里歡樂跑 395 395 9093 廖錦明 Liu Kam Ming 00:19:49
2公里歡樂跑 396 396 9676 李紅英 00:19:50
2公里歡樂跑 397 397 9754 梁瑾欣 LIANG JIN XIN LINDA 00:19:50
2公里歡樂跑 398 398 9226 蕭結桃 Siu Kit To 00:19:51
2公里歡樂跑 399 399 9755 梁振誠 LIANG CHUN SHING 00:19:51
2公里歡樂跑 400 400 9092 廖海彤 Liu Hoi Tung 00:19:51
2公里歡樂跑 401 401 9225 謝凱程 Tse Hoi Ching 00:19:52
2公里歡樂跑 402 402 9459 溫曉暉 Wan Hiu Fai 00:19:52
2公里歡樂跑 403 403 9461 梁淑嫻 Leung Suk Han 00:19:53
2公里歡樂跑 404 404 9170 盧子樂 Lo Tsz Lok 00:19:56
2公里歡樂跑 405 405 9752 梁偉標 LIANG WIE BIAO 00:19:58
2公里歡樂跑 406 406 9729 丁冬華 DING DONG HUA 00:19:58
2公里歡樂跑 407 407 9756 梁瑾帆 LIANG JIN FANG 00:19:58
2公里歡樂跑 408 408 9318 石鈞文 SHI Kwan Man 00:20:01
2公里歡樂跑 409 409 9150 王偉勤 Wong Wai Kan 00:20:04
2公里歡樂跑 410 410 9152 蘇佩芬 So Pui Fan 00:20:04
2公里歡樂跑 411 411 9151 王曦彤 Wong Hei Tung 00:20:05
2公里歡樂跑 412 412 9749 施泳彤 SZE WING TUNG 00:20:06
2公里歡樂跑 413 413 9313  李怡嬋 LI Yichan  00:20:06
2公里歡樂跑 414 414 9290 龍海博  LONG HOI POK  00:20:08
2公里歡樂跑 415 415 9686 蔡卓謙 00:20:08
2公里歡樂跑 416 416 9660 邱海晁 QIU HOI CHIU 00:20:09
2公里歡樂跑 417 417 9671 陳宏平 TERRY 00:20:10
2公里歡樂跑 418 418 9735 張勉春 ZHANG MIA CHUN 00:20:13
2公里歡樂跑 419 419 9733 謝梓怡 XIE ZI YI 00:20:14
2公里歡樂跑 420 420 9069 何卓謙 Ho Cheuk Him 00:20:15
2公里歡樂跑 421 421 9214 溫梓燁 Wan Tsz Yip 00:20:16
2公里歡樂跑 422 422 9071 胡文惠 Wu Man Wai 00:20:17
2公里歡樂跑 423 423 9213 溫偉斌 Wan Wai Pun 00:20:20
2公里歡樂跑 424 424 9664 鄧志輝 TANG CHI FAI 00:20:21
2公里歡樂跑 425 425 9419 黃志清 Wong Chi Ching 00:20:21
2公里歡樂跑 426 426 9663 楊玉玲 YANG YU LING 00:20:22
2公里歡樂跑 427 427 9550 謝漢威 Tse Hon Wai 00:20:30
2公里歡樂跑 428 428 9589 楊宸熙 Yang Sen Hei 00:20:30
2公里歡樂跑 429 429 9605 李佩蘭 Lee Pui Lan Ada 00:20:32
2公里歡樂跑 430 430 9606 李慧萍 Lee Wai Ping 00:20:33
2公里歡樂跑 431 431 9080 侯鐫曦 Hau Chun Hei 00:20:33
2公里歡樂跑 432 432 9744 梁嘉琪 LEUNG KA KI 00:20:33
2公里歡樂跑 433 433 9081 侯煥基 Hau Woon Ki 00:20:34
2公里歡樂跑 434 434 9717 陳卓霖 00:20:35
2公里歡樂跑 435 435 9740 李振鵬 00:20:35
2公里歡樂跑 436 436 9743 劉祝紅 LIU ZHU HONG 00:20:36
2公里歡樂跑 437 437 9425 許鑽芬 Hui Chuen Fan Angela 00:20:36
2公里歡樂跑 438 438 9608 邱愷韻 Yau Hoi Wan 00:20:36
2公里歡樂跑 439 439 9607 陳泓熹 Chan Wang Hei 00:20:37
2公里歡樂跑 440 440 9738 柯彩珍 KE CAI ZHEN 00:20:39
2公里歡樂跑 441 441 9017 馬思澄 Ma Sze Ching 00:20:40
2公里歡樂跑 442 442 9585 羅翔 00:20:40
2公里歡樂跑 443 443 9066 林金山 Green Greg 00:20:41
2公里歡樂跑 444 444 9067 李利梅 Li Li Mei 00:20:44
2公里歡樂跑 445 445 9099 胡偉花 Nu Wei Nua 00:20:48
2公里歡樂跑 446 446 9523 林文傑 Lam Man Kit 00:20:48
2公里歡樂跑 447 447 9524 林柏翹 Lam Pakin Ernest 00:20:48
2公里歡樂跑 448 448 9647 莊茹 ZHUANG RU 00:20:49
2公里歡樂跑 448 448 9672 瞿慶佳 QU QINGJIA 00:20:49
2公里歡樂跑 450 450 9715 文小燕 00:20:51
2公里歡樂跑 451 451 9464 莊美蘭 Chong Mei Lan Stella 00:20:52
2公里歡樂跑 452 452 9602 劉烙飛 Lau Lok Fei 00:20:53
2公里歡樂跑 453 453 9789 羅天恩 Lo Tin Yan 00:20:55
2公里歡樂跑 454 454 9790 羅和倫 Lo Wo Lun 00:20:56
2公里歡樂跑 455 455 9758 冼玉英 XIAN YU YING 00:21:03
2公里歡樂跑 456 456 9243 黃振豪  HUANG ZHENHAO  00:21:05
2公里歡樂跑 457 457 9255 莊嘉瑩  ZHUANG SINDY  00:21:05
2公里歡樂跑 458 458 9042 王鐵權 Wong Tit Kuen Kent 00:21:06
2公里歡樂跑 459 459 9043 翁輝莉 Yung Fai Lee 00:21:06
2公里歡樂跑 460 460 9041 王信泓 Wong Shun Wang 00:21:07
2公里歡樂跑 461 461